[[{"header":{"parameterUnit":"m.s-1","parameterCategory":1,"la1":30.2992,"la2":30.254,"lo1":-89.0895,"lo2":-89.0443,"dy":0.0025,"dx":0.0025,"nx":19,"ny":19,"refTime":"2026-05-04T03:00:00:Z","depth":0,"parameterNumber":2,"parameterNumberName":"U-component_of_WINDS"},"data":[0,0,0,-1.0916,-1.0917,-1.0986,-1.0986,-1.1065,-1.1066,0,0,0,0,0,0,0,0,0,0,0,-1.0892,-1.0892,-1.0915,-1.0917,-1.0986,-1.0986,-1.1065,-1.1066,0,0,0,0,0,0,0,0,0,0,0,-1.0891,-1.0892,-1.0892,-1.0917,-1.0986,-1.0986,-1.1065,-1.1016,0,0,0,0,0,0,0,0,0,0,-1.095,-1.0925,-1.0892,-1.0892,-1.0918,-1.0986,-1.0986,-1.1014,-1.1019,-1.1031,0,-1.1042,0,-1.1055,-1.1071,-1.1071,0,0,0,-1.0919,-1.0921,-1.0943,-1.0893,-1.0918,-1.0985,-1.0955,-1.1017,-1.1023,-1.1038,-1.1043,-1.1046,-1.1056,-1.1071,-1.1072,-1.1136,-1.1136,0,0,-1.0916,-1.0902,-1.0939,-1.0946,-1.0937,-1.0953,-1.0958,-1.102,-1.1025,-1.1043,-1.1048,-1.1058,-1.1072,-1.1072,-1.1135,-1.1136,0,0,0,-1.0903,-1.0899,-1.092,-1.0943,-1.0956,-1.0955,-1.096,-1.1022,-1.103,-1.1049,-1.1059,-1.1072,-1.1073,-1.1135,-1.1135,-1.1131,0,0,0,-1.0901,-1.0892,-1.0918,-1.091,-1.0955,-1.099,-1.096,-1.1025,-1.1033,-1.1058,-1.1072,-1.1074,-1.1135,-1.1135,-1.1131,-1.1131,0,0,0,-1.0888,-1.089,-1.0899,-1.0909,-1.0938,-1.099,-1.1001,-1.1027,-1.1039,-1.1071,-1.1074,-1.1135,-1.1135,-1.1131,-1.1131,-1.1144,0,0,0,-1.087,-1.0894,-1.0899,-1.0929,-1.0938,-1.0987,-1.1001,-1.1038,-1.1065,-1.1072,-1.1135,-1.1135,-1.1131,-1.1131,-1.1143,-1.1152,-1.1154,0,0,-1.0893,-1.0897,-1.0915,-1.0921,-1.0967,-1.0978,-1.1022,-1.1059,-1.1075,-1.1114,-1.1116,-1.1131,-1.1131,-1.1144,-1.1173,-1.1175,0,0,0,-1.0918,-1.0931,-1.0946,-1.0972,-1.1002,-1.1027,-1.1059,-1.1073,-1.1107,-1.1093,-1.114,-1.114,-1.1148,-1.1153,-1.1154,-1.1161,-1.1137,-1.1137,-1.1137,-1.0929,-1.0948,-1.098,-1.1007,-1.1031,-1.1064,-1.1085,-1.1109,-1.1121,-1.1131,-1.1143,-1.1159,-1.1163,-1.1165,-1.1172,-1.1149,-1.1149,-1.1149,-1.1149,-1.0963,-1.0984,-1.0999,-1.1035,-1.1054,-1.1084,-1.1116,-1.1123,-1.1153,-1.1152,-1.116,-1.1156,-1.1166,-1.1173,-1.1149,-1.1149,-1.1149,-1.1149,-1.1149,-1.0972,-1.0985,-1.1002,-1.1041,-1.1068,-1.1094,-1.1122,-1.1138,-1.1153,-1.1161,-1.1174,-1.1175,-1.1176,-1.1166,-1.1167,-1.1167,-1.1167,-1.1167,-1.1167,-1.0974,-1.0993,-1.1016,-1.1049,-1.1067,-1.1093,-1.1126,-1.1143,-1.1167,-1.1176,-1.1177,-1.1186,-1.1164,-1.1158,-1.1168,-1.1167,-1.1167,-1.1167,-1.1167,-1.1,-1.0997,-1.1031,-1.105,-1.1089,-1.1115,-1.1135,-1.117,-1.1187,-1.1199,-1.1207,-1.1189,-1.1193,-1.1192,-1.1187,-1.1204,-1.1204,-1.1204,-1.1204,-1.1007,-1.1012,-1.105,-1.1078,-1.1107,-1.1129,-1.1165,-1.119,-1.1215,-1.1226,-1.1226,-1.1221,-1.1219,-1.1225,-1.1223,-1.1219,-1.1243,-1.1243,-1.1243,-1.1024,-1.1032,-1.1061,-1.1086,-1.1118,-1.1145,-1.1179,-1.1209,-1.1237,-1.1245,-1.1235,-1.1234,-1.1225,-1.1222,-1.123,-1.1227,-1.1218,0,0]},{"header":{"parameterUnit":"m.s-1","parameterCategory":1,"la1":30.2992,"la2":30.254,"lo1":-89.0895,"lo2":-89.0443,"dy":0.0025,"dx":0.0025,"nx":19,"ny":19,"refTime":"2026-05-04T03:00:00:Z","depth":0,"parameterNumber":3,"parameterNumberName":"V-component_of_WINDS"},"data":[0,0,0,-1.6847,-1.6848,-1.6888,-1.6888,-1.6941,-1.6942,0,0,0,0,0,0,0,0,0,0,0,-1.6838,-1.6838,-1.6847,-1.6848,-1.6888,-1.6888,-1.6941,-1.6942,0,0,0,0,0,0,0,0,0,0,0,-1.6838,-1.6838,-1.6839,-1.6848,-1.6888,-1.6888,-1.6941,-1.691,0,0,0,0,0,0,0,0,0,0,-1.6871,-1.6865,-1.6838,-1.6839,-1.6849,-1.6888,-1.6888,-1.6908,-1.6912,-1.6925,0,-1.6937,0,-1.694,-1.6945,-1.6946,0,0,0,-1.6846,-1.6862,-1.6871,-1.6839,-1.6849,-1.6888,-1.6869,-1.691,-1.6914,-1.6929,-1.6938,-1.694,-1.6941,-1.6946,-1.6946,-1.7025,-1.7025,0,0,-1.6844,-1.6846,-1.6868,-1.6873,-1.6868,-1.6868,-1.6871,-1.6913,-1.6922,-1.6938,-1.6941,-1.6942,-1.6946,-1.6947,-1.7024,-1.7025,0,0,0,-1.6839,-1.6845,-1.6852,-1.6871,-1.6878,-1.6869,-1.6872,-1.692,-1.6922,-1.6941,-1.6943,-1.6947,-1.6947,-1.7024,-1.7025,-1.7048,0,0,0,-1.6838,-1.6842,-1.6851,-1.6853,-1.6877,-1.69,-1.6879,-1.6919,-1.6924,-1.6942,-1.6947,-1.6948,-1.7023,-1.7024,-1.7047,-1.7059,0,0,0,-1.6834,-1.6842,-1.6848,-1.6853,-1.687,-1.6899,-1.6904,-1.692,-1.6925,-1.6946,-1.6948,-1.7023,-1.7024,-1.7045,-1.7057,-1.7079,0,0,0,-1.6832,-1.687,-1.6849,-1.6891,-1.687,-1.6914,-1.6903,-1.6936,-1.6957,-1.6947,-1.7024,-1.7025,-1.7045,-1.7055,-1.7078,-1.7098,-1.7107,0,0,-1.6881,-1.6876,-1.6901,-1.6883,-1.6931,-1.6907,-1.6959,-1.6976,-1.6976,-1.7008,-1.701,-1.7047,-1.7056,-1.7079,-1.7158,-1.7165,0,0,0,-1.6917,-1.6935,-1.6947,-1.6967,-1.698,-1.6992,-1.7001,-1.7007,-1.7034,-1.6993,-1.7062,-1.7067,-1.708,-1.709,-1.7096,-1.7106,-1.7029,-1.7029,-1.7029,-1.6991,-1.6988,-1.7028,-1.7029,-1.7048,-1.7055,-1.707,-1.7079,-1.7072,-1.7088,-1.7097,-1.7146,-1.7157,-1.7161,-1.7172,-1.7108,-1.7109,-1.7109,-1.7109,-1.7062,-1.7086,-1.7073,-1.7108,-1.7104,-1.7132,-1.714,-1.7133,-1.7159,-1.7139,-1.715,-1.7128,-1.7169,-1.7178,-1.711,-1.711,-1.711,-1.711,-1.711,-1.711,-1.712,-1.7126,-1.7152,-1.7172,-1.7171,-1.7195,-1.7191,-1.7188,-1.7199,-1.7207,-1.7207,-1.7205,-1.7203,-1.7203,-1.7204,-1.7204,-1.7204,-1.7204,-1.7157,-1.7162,-1.7183,-1.7198,-1.7208,-1.7221,-1.7227,-1.7238,-1.7247,-1.7242,-1.7242,-1.7232,-1.7174,-1.7159,-1.7207,-1.7206,-1.7206,-1.7205,-1.7205,-1.7229,-1.7211,-1.7243,-1.7253,-1.7269,-1.7288,-1.7282,-1.7302,-1.731,-1.7321,-1.7308,-1.7266,-1.7261,-1.7256,-1.7243,-1.731,-1.731,-1.731,-1.731,-1.7268,-1.7264,-1.7295,-1.7311,-1.7326,-1.7323,-1.7357,-1.7361,-1.7363,-1.7367,-1.7357,-1.734,-1.7335,-1.7333,-1.7326,-1.7314,-1.7397,-1.7397,-1.7397,-1.7312,-1.7309,-1.7339,-1.734,-1.7351,-1.7361,-1.7393,-1.7411,-1.7409,-1.7401,-1.737,-1.7366,-1.7339,-1.733,-1.7321,-1.7311,-1.729,0,0]}]]